Torna al catalogo

CZ-6A DEB

AttivoSSO
NORAD 54532·DEBRIS·🇨🇳 China

Lanciato Nov 11, 2022 da Taiyuan Satellite Launch Center

Loading…

Prossimi Passaggi (prossime 24 ore)

TLE

AggiornatoSource: Space-Track

Epoca: Sep 14, 2026, 03:36 UTC

1 54532U 22151KL  26257.15065182  .00000558  00000-0  14573-3 0  9991
2 54532  98.5899 315.8333 0126777  24.3482 336.3629 14.48897549202452

Traccia CZ-6A DEB in tempo reale con AllMySat

Download on the App Store